TimeAEST,TemperatureF,Dew PointF,Humidity,Sea Level PressureIn,VisibilityMPH,Wind Direction,Wind SpeedMPH,Gust SpeedMPH,PrecipitationIn,Events,Conditions,WindDirDegrees,DateUTC
12:00 AM,53,44,62,29.90,19,NNW,12.7,,,,Partly Cloudy,330,2013-08-04 14:00:00
12:00 AM,53.6,44.6,72,29.89,-9999.0,NNW,12.7,-,N/A,,Clear,330,2013-08-04 14:00:00
12:30 AM,53.6,44.6,72,29.89,-9999.0,NNW,12.7,-,N/A,,Clear,330,2013-08-04 14:30:00
1:00 AM,52,44,68,29.89,,NNW,12.7,,,,,330,2013-08-04 15:00:00
1:00 AM,51.8,44.6,76,29.89,-9999.0,NNW,12.7,-,N/A,,Clear,330,2013-08-04 15:00:00
1:30 AM,51.8,44.6,76,29.86,-9999.0,NNW,13.8,-,N/A,,Clear,340,2013-08-04 15:30:00
2:00 AM,51.8,44.6,76,29.89,-9999.0,NNW,15.0,-,N/A,,Clear,330,2013-08-04 16:00:00
2:30 AM,51.8,44.6,76,29.86,6.2,NNW,13.8,-,N/A,,Mostly Cloudy,330,2013-08-04 16:30:00
3:00 AM,51,44,70,29.88,19,NNW,11.5,,,,Partly Cloudy,340,2013-08-04 17:00:00
3:00 AM,51.8,44.6,76,29.86,6.2,NNW,11.5,-,N/A,,Mostly Cloudy,340,2013-08-04 17:00:00
3:30 AM,51.8,44.6,76,29.86,6.2,North,13.8,-,N/A,,Mostly Cloudy,350,2013-08-04 17:30:00
4:00 AM,50,45,76,29.88,,North,11.5,,,,,0,2013-08-04 18:00:00
4:00 AM,50.0,44.6,82,29.86,6.2,North,11.5,-,N/A,,Mostly Cloudy,360,2013-08-04 18:00:00
4:30 AM,50.0,44.6,82,29.86,-9999.0,North,11.5,-,N/A,,Clear,10,2013-08-04 18:30:00
5:00 AM,50.0,44.6,82,29.86,6.2,North,12.7,-,N/A,,Mostly Cloudy,350,2013-08-04 19:00:00
5:30 AM,51.8,44.6,76,29.86,-9999.0,North,13.8,-,N/A,,Clear,350,2013-08-04 19:30:00
6:00 AM,51,45,72,29.88,19,NNW,15.0,,,,Partly Cloudy,340,2013-08-04 20:00:00
6:00 AM,51.8,44.6,76,29.86,-9999.0,NNW,15.0,-,N/A,,Clear,340,2013-08-04 20:00:00
6:30 AM,51.8,44.6,76,29.86,-9999.0,North,13.8,-,N/A,,Clear,350,2013-08-04 20:30:00
7:00 AM,51,44,70,29.89,,North,12.7,,,,,0,2013-08-04 21:00:00
7:00 AM,51.8,44.6,76,29.89,-9999.0,North,12.7,-,N/A,,Clear,360,2013-08-04 21:00:00
7:30 AM,50.0,42.8,76,29.89,6.2,North,11.5,-,N/A,,Mostly Cloudy,360,2013-08-04 21:30:00
8:00 AM,51.8,42.8,71,29.89,6.2,NNW,12.7,-,N/A,,Mostly Cloudy,330,2013-08-04 22:00:00
8:30 AM,53.6,42.8,67,29.89,6.2,North,16.1,-,N/A,,Scattered Clouds,350,2013-08-04 22:30:00
9:00 AM,53,43,59,29.91,19,North,17.3,,,,Partly Cloudy,350,2013-08-04 23:00:00
9:00 AM,53.6,42.8,67,29.89,6.2,North,17.3,-,N/A,,Mostly Cloudy,350,2013-08-04 23:00:00
9:30 AM,53.6,44.6,72,29.89,6.2,North,16.1,-,N/A,,Scattered Clouds,350,2013-08-04 23:30:00
10:00 AM,53,45,67,29.91,,NW,18.4,,,,,320,2013-08-05 00:00:00
10:00 AM,53.6,44.6,72,29.89,6.2,NW,18.4,-,N/A,,Scattered Clouds,320,2013-08-05 00:00:00
10:30 AM,57.2,46.4,67,29.89,6.2,NNW,19.6,-,N/A,,Scattered Clouds,330,2013-08-05 00:30:00
11:00 AM,55.4,42.8,63,29.89,6.2,NNW,17.3,-,N/A,,Mostly Cloudy,340,2013-08-05 01:00:00
11:21 AM,55.4,42.8,63,29.86,6.2,NNW,17.3,31.1,N/A,,Mostly Cloudy,340,2013-08-05 01:21:00
11:30 AM,55.4,42.8,63,29.86,6.2,NNW,20.7,-,N/A,,Mostly Cloudy,340,2013-08-05 01:30:00
12:00 PM,55,44,58,29.87,25,North,17.3,,,,Mostly Cloudy,0,2013-08-05 02:00:00
12:00 PM,55.4,44.6,67,29.86,6.2,North,17.3,-,N/A,,Mostly Cloudy,360,2013-08-05 02:00:00
12:30 PM,55.4,44.6,67,29.86,6.2,North,17.3,-,N/A,,Mostly Cloudy,350,2013-08-05 02:30:00
1:00 PM,57,44,52,29.84,,NW,19.6,,,,,320,2013-08-05 03:00:00
1:00 PM,57.2,44.6,63,29.83,6.2,NW,19.6,-,N/A,,Mostly Cloudy,320,2013-08-05 03:00:00
1:30 PM,57.2,44.6,63,29.83,6.2,NNW,13.8,-,N/A,,Mostly Cloudy,330,2013-08-05 03:30:00
2:00 PM,57.2,44.6,63,29.80,6.2,North,12.7,-,N/A,,Mostly Cloudy,350,2013-08-05 04:00:00
2:30 PM,55.4,44.6,67,29.77,6.2,North,17.3,-,N/A,,Mostly Cloudy,360,2013-08-05 04:30:00
3:00 PM,57,44,51,29.78,25,North,21.9,,,,Mostly Cloudy,350,2013-08-05 05:00:00
3:00 PM,57.2,44.6,63,29.77,6.2,North,21.9,-,N/A,,Mostly Cloudy,350,2013-08-05 05:00:00
3:30 PM,57.2,44.6,63,29.74,6.2,North,21.9,-,N/A,,Mostly Cloudy,350,2013-08-05 05:30:00
4:00 PM,58,44,50,29.77,,NNW,19.6,,,,,340,2013-08-05 06:00:00
4:00 PM,59.0,44.6,59,29.74,6.2,NNW,19.6,-,N/A,,Mostly Cloudy,340,2013-08-05 06:00:00
4:09 PM,59.0,44.6,59,29.77,6.2,NNW,21.9,35.7,N/A,,Mostly Cloudy,340,2013-08-05 06:09:00
4:30 PM,57.2,44.6,63,29.74,6.2,North,23.0,-,N/A,,Mostly Cloudy,350,2013-08-05 06:30:00
4:42 PM,57.2,44.6,63,29.71,6.2,North,26.5,38.0,N/A,,Mostly Cloudy,360,2013-08-05 06:42:00
5:00 PM,57.2,44.6,63,29.74,6.2,North,25.3,36.8,N/A,,Mostly Cloudy,350,2013-08-05 07:00:00
5:30 PM,57.2,46.4,67,29.74,6.2,North,25.3,-,N/A,,Mostly Cloudy,350,2013-08-05 07:30:00
6:00 PM,56,46,61,29.76,25,North,23.0,,,,Partly Cloudy,0,2013-08-05 08:00:00
6:00 PM,55.4,46.4,72,29.74,6.2,North,23.0,-,N/A,,Mostly Cloudy,350,2013-08-05 08:00:00
6:37 PM,55.4,46.4,72,29.71,-9999.0,North,24.2,35.7,N/A,,Clear,350,2013-08-05 08:37:00
7:00 PM,56,47,63,29.75,,North,28.8,,,,,350,2013-08-05 09:00:00
7:00 PM,55.4,46.4,72,29.74,-9999.0,North,28.8,-,N/A,,Clear,350,2013-08-05 09:00:00
7:30 PM,55.4,48.2,77,29.71,-9999.0,North,29.9,-,N/A,,Clear,360,2013-08-05 09:30:00
8:00 PM,53.6,48.2,82,29.71,-9999.0,North,28.8,-,N/A,,Clear,360,2013-08-05 10:00:00
8:16 PM,53.6,48.2,82,29.71,-9999.0,North,28.8,40.3,N/A,,Clear,360,2013-08-05 10:16:00
8:30 PM,55.4,48.2,77,29.71,-9999.0,North,28.8,-,N/A,,Clear,360,2013-08-05 10:30:00
9:00 PM,54,49,77,29.75,12,North,26.5,,,Rain,Light Rain Showers,0,2013-08-05 11:00:00
9:00 PM,53.6,48.2,82,29.74,6.2,North,26.5,-,N/A,Rain,Light Rain Showers,360,2013-08-05 11:00:00
9:08 PM,53.6,50.0,88,29.71,6.2,North,25.3,36.8,N/A,Rain,Light Rain Showers,350,2013-08-05 11:08:00
9:30 PM,53.6,50.0,88,29.71,6.2,North,26.5,-,N/A,Rain,Light Rain Showers,360,2013-08-05 11:30:00
10:00 PM,53,50,85,29.70,,North,26.5,,,,,0,2013-08-05 12:00:00
10:00 PM,53.6,50.0,88,29.68,-9999.0,North,26.5,-,N/A,,Clear,360,2013-08-05 12:00:00
10:09 PM,51.8,50.0,94,29.68,-9999.0,North,26.5,41.4,N/A,,Clear,360,2013-08-05 12:09:00
10:30 PM,53.6,48.2,82,29.65,-9999.0,North,23.0,-,N/A,,Clear,360,2013-08-05 12:30:00
11:00 PM,53.6,48.2,82,29.65,-9999.0,North,29.9,-,N/A,,Clear,360,2013-08-05 13:00:00
11:30 PM,53.6,48.2,82,29.62,-9999.0,North,29.9,-,N/A,,Clear,360,2013-08-05 13:30:00